Location: Morisset
(33.1080°S, 151.4871°E)
Time: 08:36:36
(UTC+00:00)

Yuri Rocket - Pass Details

Date: 29 October 2020
Orbit: 568 x 1914 km, 28.2° (Epoch: 27 November)

Event Time Altitude Azimuth Distance (km) Brightness Sun altitude
Exits shadow 16:37:17 49° 8° (N) 1,239 4.3 -26.5°
Drops below altitude 10° 16:42:38 10° 81° (E) 2,359 6.5 -25.7°
Sets 16:44:51 0° 87° (E) 3,149 7.4 -25.3°
